Weather in Bolshaya Chencher

Russia / Tyumen Oblast     55°47′28″N   69°26′14″E
temp.,
°C
wind,
m/s
gust,
m/s
humid.,
%
clouds,
%
prec.,
mm/h
press.,
hPa
HPBL,
m
26 february, fri
fri2623:00−26nw379897 0.1 1026154
02:00−29wnw339998 0.0 102749
05:00−31wnw239985 0.0 102923
08:00−31w239926 0.0 103122
11:00−25w239451 0.0 1031239
14:00−22wsw3490100 0.0 1031393
17:00−23sw3596100 0.0 1032113
20:00−28ssw339863 0.0 103230
27 february, sat
sat2723:00−30ssw349936 0.0 103237
02:00−31ssw339955 0.0 103231
05:00−31s339836 0.0 103236
08:00−31s34970 0.0 103167
11:00−25sse35956 0.0 1031237
14:00−21sse469355 0.0 1030335
17:00−22se499244 0.0 1029270
20:00−26se511910 0.0 1027226
28 february, sun
sun2823:00−24se5109536 0.0 1025226
02:00−21se61095100 0.0 1022257
05:00−19se61294100 0.1 1020298
08:00−18se61294100 0.3 1018374
11:00−14se71193100 0.7 1016495
14:00−11ese61191100 0.3 1013586
17:00−11ese61093100 0.6 1011518
20:00−11e61094100 0.7 1009424
1 march, mon
mon123:00−12ene5995100 1.5 1008357
02:00−13ne4795100 0.7 1009295
05:00−15ne359696 0.8 1010133
08:00−16nne249680 0.1 1011130
11:00−13n339285 0.1 1012296
14:00−12nnw3391100 0.0 1013385
17:00−14n2394100 0.1 101469
20:00−18n229890 0.0 101520
2 march, tue
tue223:00−19nnw2210087 0.0 101620
02:00−21nw2310089 0.0 101620
05:00−23nw2310068 0.0 101620
08:00−23wnw229963 0.0 101621
11:00−18w239257 0.0 1016240
14:00−15wsw359196 0.0 1015397
17:00−16sw369598 0.0 1015209
20:00−19ssw469965 0.0 101596